Theta_e
306 306 306 311 312 312 313 312 311 310 310 310 311 313 315 316 316 315 316 316 313 314 314 314 314 315 315 320 320 318 321 320 320 319 321 320 319 320 323 340 345 347 345 343 342
306 306 306 310 312 313 314 314 312 311 310 309 310 313 315 316 317 319 318 315 313 312 313 314 314 315 318 319 319 320 321 320 318 319 320 319 318 318 321 340 346 334 334 339 343
306 306 306 309 313 314 315 316 315 312 311 310 310 313 315 315 319 318 319 316 314 313 314 314 315 316 317 317 317 316 321 319 319 318 317 319 320 317 320 323 324 323 329 336 343
306 306 307 308 313 315 316 317 314 313 313 312 312 314 316 315 320 318 319 317 315 315 315 315 316 316 317 318 315 319 317 317 318 316 316 318 317 319 319 322 321 320 324 331 341
306 306 307 310 314 316 317 317 315 315 314 314 314 315 315 316 318 319 319 315 316 315 313 315 316 317 319 317 316 318 317 316 317 316 315 315 318 319 319 319 319 320 321 329 331
307 307 307 312 315 317 317 317 317 314 313 314 315 315 315 318 319 318 319 317 314 315 314 316 317 318 317 316 317 316 316 316 315 316 316 317 318 316 319 319 320 320 320 326 329
309 307 307 314 316 317 317 317 319 318 319 314 314 315 316 319 319 319 318 319 317 313 317 317 317 317 316 317 315 315 318 317 316 316 317 315 320 319 320 319 320 321 321 320 326
312 307 307 314 316 317 317 317 318 317 319 321 318 317 317 320 320 319 319 318 319 317 317 317 317 317 317 315 316 316 316 318 318 316 316 319 320 321 319 318 320 321 320 318 320
310 308 307 310 317 318 317 316 318 319 317 322 320 320 321 321 320 319 318 318 319 319 317 317 317 315 316 317 318 318 318 319 320 317 317 319 322 322 321 319 320 320 319 319 319
308 308 307 308 316 319 316 316 321 317 317 320 318 318 319 319 320 318 319 318 319 317 317 317 316 319 318 320 320 320 320 320 320 320 320 320 321 322 320 320 324 326 324 319 318
309 309 308 308 316 317 315 316 316 317 317 317 317 318 319 319 319 318 319 319 318 318 319 316 320 321 319 318 318 318 318 320 321 319 318 322 321 323 321 326 328 330 333 327 332
311 309 308 308 315 315 314 315 314 316 317 318 318 318 319 319 319 318 319 318 319 320 318 319 320 318 317 317 318 318 320 322 321 319 319 322 322 323 322 326 331 335 339 340 338
311 310 309 308 315 315 314 314 314 315 317 318 319 319 318 319 318 318 318 318 319 319 319 320 319 317 320 321 322 320 322 321 321 321 321 321 321 322 320 327 330 333 336 338 342
311 309 309 309 315 316 315 316 315 314 321 320 320 319 318 318 318 318 318 319 318 319 318 318 317 319 321 320 321 322 317 319 320 321 321 320 320 322 324 326 327 329 332 335 339
313 309 308 308 313 317 316 315 315 317 322 319 318 317 317 316 315 318 317 318 319 319 319 318 319 320 321 318 319 318 317 318 318 320 320 320 320 320 324 325 326 328 329 331 335
313 313 311 311 316 315 315 316 317 324 321 318 316 316 316 316 317 317 318 318 316 318 319 318 317 318 318 319 317 315 317 316 318 319 319 323 322 321 329 327 327 326 326 325 330
315 316 316 316 317 317 314 317 324 326 317 317 316 316 317 317 318 318 318 319 320 319 319 319 318 317 316 317 315 317 317 314 315 319 319 321 320 323 327 325 324 324 324 321 324
316 317 317 316 315 316 318 321 323 316 316 315 316 317 318 317 317 317 318 319 317 318 319 319 319 317 315 315 315 319 319 312 313 316 316 319 315 321 324 323 323 323 321 321 319
317 317 317 317 316 316 319 323 319 316 315 316 316 318 317 317 317 317 318 318 316 316 319 318 318 316 316 319 318 318 320 320 322 321 322 320 322 325 325 325 323 322 321 318 318
318 319 317 317 317 319 321 319 316 314 315 315 318 316 318 317 317 317 317 316 315 314 315 317 318 315 314 317 319 319 320 321 323 322 322 319 322 320 327 327 324 323 321 318 317
316 317 317 317 317 318 320 318 317 315 314 316 316 316 317 316 316 317 316 315 314 315 315 316 316 314 314 319 318 319 320 323 322 324 325 322 320 324 325 326 325 322 320 319 317
313 320 314 316 317 313 318 315 315 315 314 315 315 316 317 315 316 316 317 316 314 314 315 313 316 316 315 315 319 318 318 320 318 320 322 321 319 318 323 324 324 321 320 319 318
312 313 312 315 315 314 314 315 315 317 316 315 315 315 314 316 316 315 316 315 314 314 315 315 315 316 316 317 315 318 318 319 320 320 321 320 318 322 321 324 323 321 320 318 317
312 315 312 310 311 314 315 315 317 316 314 313 314 314 315 315 315 316 316 315 314 316 313 313 317 317 317 315 315 316 316 318 319 319 317 318 317 317 317 318 319 321 319 319 318
311 312 310 313 311 312 312 314 316 317 315 313 315 315 316 317 316 316 315 315 314 314 313 315 316 315 314 314 314 315 315 315 319 317 317 315 315 314 316 316 316 318 321 320 319
310 310 308 309 308 311 311 315 316 315 315 315 315 314 314 316 316 315 315 315 315 314 314 313 316 315 315 315 315 315 315 316 315 315 315 315 315 315 315 314 317 317 319 322 320
310 309 309 307 310 312 313 314 314 312 314 312 312 313 314 314 313 313 313 313 314 315 315 315 315 315 314 312 313 314 313 313 313 313 314 315 316 315 316 315 319 320 320 321 321
Wind_Speed
17 17 16 14 14 13 14 12 10 9 8 7 7 6 5 5 6 3 5 2 4 9 8 7 7 9 8 6 4 4 2 3 2 2 6 12 9 11 6 2 2 2 3 3 4
18 18 17 14 13 13 13 13 11 9 6 5 5 5 4 4 4 7 5 4 3 9 9 5 8 11 6 4 3 2 1 4 2 2 6 10 6 14 7 4 4 2 4 5 7
18 18 17 14 12 12 13 14 12 9 6 4 3 2 1 2 7 4 5 3 5 9 8 8 9 7 4 4 2 3 2 2 2 5 6 7 9 8 9 4 2 3 3 2 10
18 18 17 14 12 12 14 15 12 8 5 3 1 2 3 6 3 5 8 2 6 6 7 10 9 3 4 4 2 3 2 4 3 2 2 7 8 11 3 6 8 8 6 5 10
18 18 17 14 10 12 15 17 11 9 6 3 2 4 6 7 6 7 11 9 6 6 7 8 5 4 5 5 4 2 1 3 5 9 6 6 5 4 10 12 10 11 10 8 9
18 17 16 13 9 12 15 16 10 8 6 5 6 6 7 5 8 7 8 11 7 5 9 7 5 7 6 2 1 0 3 6 4 5 4 4 3 3 3 15 15 12 11 12 13
18 16 15 11 8 11 15 13 7 10 10 8 7 8 8 6 5 4 5 7 10 10 12 9 7 3 4 4 2 1 4 2 3 6 2 5 4 4 10 12 15 15 14 16 16
19 15 13 8 6 10 14 11 4 9 8 9 9 9 5 6 4 3 5 6 8 10 9 8 7 7 3 2 3 2 2 2 3 8 3 5 5 13 11 17 19 17 15 12 18
21 15 12 9 5 10 12 10 2 6 7 6 7 7 4 7 8 7 9 7 9 8 6 5 5 4 3 2 3 6 2 4 6 6 5 6 8 14 17 15 16 19 19 18 17
23 16 11 9 5 9 12 5 1 6 4 6 7 5 4 4 5 8 9 7 7 10 6 2 4 3 3 4 2 2 2 3 5 3 6 4 8 13 12 9 11 16 20 16 13
25 17 10 7 2 7 12 3 2 2 6 3 2 3 4 4 4 6 6 7 7 6 3 5 7 7 5 2 2 2 1 3 6 1 3 8 8 11 6 11 14 18 20 15 8
25 17 9 4 3 2 9 8 9 3 3 4 3 2 2 3 3 5 6 3 4 4 1 3 8 1 1 3 2 2 1 4 8 3 5 10 10 8 2 9 13 18 20 19 13
26 16 8 2 6 3 5 9 8 7 0 2 2 2 1 3 2 5 4 5 3 3 3 5 3 2 5 6 4 5 4 6 7 10 7 9 14 4 3 6 14 19 19 18 14
24 15 6 2 6 5 1 6 8 2 2 1 0 1 0 0 3 2 5 1 2 3 3 4 5 5 7 5 2 2 7 6 10 10 8 5 6 4 5 1 16 20 22 18 14
20 14 7 3 4 5 1 6 2 1 3 2 1 2 1 1 1 4 4 1 3 4 2 3 3 6 6 4 2 3 7 8 10 11 8 6 5 1 6 8 18 20 20 21 13
16 17 13 10 7 3 3 1 3 2 3 1 3 3 2 8 4 1 3 4 4 3 6 4 2 4 4 1 3 10 6 6 1 3 5 4 5 1 5 9 15 18 19 19 17
13 15 16 12 9 8 2 5 2 0 2 3 3 3 5 6 4 5 4 4 1 2 2 3 3 1 4 1 2 11 6 3 2 2 2 3 7 4 5 7 9 11 15 19 15
7 10 14 14 9 8 2 1 2 1 3 1 2 6 4 6 4 4 2 2 5 2 2 3 4 3 5 3 4 3 3 2 4 3 5 10 6 1 2 4 6 6 8 13 18
2 6 16 16 12 7 2 3 2 1 1 2 2 3 2 2 3 1 3 1 2 3 1 2 3 0 6 3 3 2 1 2 3 1 4 2 2 4 0 4 7 8 9 16 21
3 5 18 17 11 5 4 3 1 1 1 1 2 1 1 3 1 2 1 1 3 4 1 2 3 1 2 1 9 1 3 2 1 3 4 3 5 6 3 5 4 1 5 10 18
5 1 15 15 9 8 4 2 2 3 2 3 2 2 2 1 1 0 1 2 2 2 5 2 1 2 2 2 2 3 3 3 1 2 2 4 4 2 4 6 6 4 5 9 13
6 3 17 10 7 3 2 3 5 5 6 3 3 3 2 3 1 1 3 1 4 2 1 2 1 2 1 3 1 1 2 2 3 4 3 4 7 4 5 5 7 9 10 10 8
5 5 15 9 4 3 4 3 2 6 4 2 2 0 1 3 1 1 2 1 1 3 5 5 1 3 3 4 4 4 4 3 3 0 8 4 5 1 4 5 10 14 16 16 18
6 3 8 12 8 2 4 4 5 8 1 2 2 2 2 3 1 3 4 1 3 1 3 6 5 9 8 6 0 6 7 9 9 6 10 14 18 19 18 16 13 18 22 23 19
7 3 4 3 5 3 1 2 3 6 6 4 0 2 3 4 2 3 2 2 3 1 1 3 8 7 9 7 6 13 15 13 15 16 14 17 19 21 20 19 22 19 25 22 19
4 2 3 1 3 3 2 2 2 4 3 3 3 2 3 3 4 4 3 3 7 3 4 1 5 2 8 9 13 16 17 17 18 19 19 19 22 17 16 13 16 14 19 18 11
6 4 1 1 1 2 1 2 1 7 4 1 7 3 3 3 4 7 8 6 4 4 6 3 4 2 6 1 6 11 17 14 12 11 10 11 9 11 16 14 10 7 10 14 11
Wind_Direction
4 1 358 353 350 352 350 345 335 319 301 288 286 293 305 319 327 358 58 58 169 172 155 148 154 171 158 122 109 107 113 167 165 189 348 334 342 351 347 122 133 129 73 343 196
3 2 359 355 353 356 358 356 348 336 317 293 284 294 312 339 84 78 48 33 148 182 185 181 161 151 124 122 103 104 139 188 194 229 321 317 326 333 342 67 176 30 347 300 199
2 2 0 357 357 1 359 356 350 344 333 310 280 281 338 14 120 38 11 12 144 151 163 155 145 135 99 130 118 143 162 182 201 252 282 304 321 327 330 37 354 16 344 258 202
1 1 1 359 0 2 359 358 356 354 352 343 262 144 119 116 105 51 42 87 152 158 150 150 148 108 116 138 139 166 166 196 292 162 290 293 318 320 316 284 309 311 300 240 220
360 360 0 1 3 1 0 359 360 2 17 37 89 130 126 109 107 82 57 82 121 146 142 149 131 113 122 121 125 182 163 210 275 291 266 270 284 299 284 333 304 290 287 248 238
358 358 359 2 4 1 2 1 12 28 45 74 102 119 117 101 125 95 73 72 98 131 134 116 100 104 95 85 72 231 275 291 306 300 290 262 220 272 322 334 325 314 282 264 252
357 355 357 2 2 359 1 5 30 45 58 78 101 111 103 106 128 116 77 76 79 99 119 103 89 99 126 133 353 15 300 344 67 354 345 298 252 216 315 337 322 318 289 263 254
356 352 353 353 359 355 359 2 31 43 49 76 92 106 89 77 50 89 109 93 98 99 104 81 99 96 55 95 40 32 73 0 11 350 41 341 303 301 330 335 321 316 303 267 245
357 352 347 345 329 340 350 355 53 25 40 74 78 103 73 74 55 87 122 104 109 109 107 104 103 78 47 92 111 28 50 1 331 0 353 17 320 318 327 336 322 323 316 281 251
357 353 343 342 323 338 350 355 45 19 68 80 75 104 83 49 63 103 106 100 120 123 89 80 67 91 67 50 97 38 16 321 304 354 320 328 298 306 339 354 340 335 330 307 276
355 354 341 339 300 345 3 55 359 40 39 41 49 97 89 82 93 122 126 104 103 87 82 28 93 60 41 78 107 151 233 304 307 303 283 317 298 310 344 20 6 360 351 338 335
351 352 339 335 195 45 31 66 44 355 333 36 52 49 59 101 117 139 138 123 82 85 102 123 71 15 81 109 129 103 24 6 291 309 294 317 299 289 23 35 22 11 8 1 360
350 351 343 324 183 175 47 46 16 7 45 342 8 48 81 116 95 166 151 124 105 91 63 76 49 313 114 83 96 94 34 344 308 316 269 301 285 215 119 58 31 27 18 16 17
354 357 3 68 164 190 87 0 345 349 89 264 289 113 128 20 78 143 178 125 87 98 119 66 4 97 92 69 327 116 356 324 317 324 314 4 289 255 333 334 23 17 16 13 16
3 15 38 112 124 145 13 335 43 141 133 135 123 126 105 54 318 39 191 140 132 126 219 82 63 80 79 69 35 2 320 308 296 287 297 261 262 351 333 337 6 3 7 7 15
36 46 58 78 86 44 323 353 141 203 139 126 20 8 111 23 35 12 80 92 96 92 59 95 61 43 9 156 46 328 301 293 244 266 256 77 353 283 18 339 340 355 1 6 8
54 49 44 41 19 11 337 155 173 204 318 22 18 24 87 19 35 28 30 33 6 225 174 111 46 79 12 308 137 8 348 324 234 203 291 46 308 0 357 357 350 349 2 5 18
44 36 25 16 359 5 115 148 110 73 34 9 38 67 74 5 46 24 86 116 60 54 124 219 202 16 352 37 331 27 352 318 283 264 304 325 270 29 357 343 359 12 34 34 22
259 17 14 4 358 353 149 74 83 143 321 13 69 73 70 42 357 65 53 84 34 22 287 203 171 317 38 47 337 53 103 35 275 251 265 256 258 184 200 337 356 7 28 55 31
295 306 11 2 2 22 77 98 71 273 39 36 84 338 128 15 29 34 20 91 115 49 309 136 276 49 52 220 54 10 95 201 100 279 272 241 269 276 270 291 295 298 81 86 66
7 140 0 356 3 58 73 58 330 21 42 33 138 115 100 79 59 308 40 77 9 64 62 91 266 125 227 43 109 139 143 75 91 256 269 295 257 265 308 273 243 196 154 129 102
17 59 358 4 48 31 49 338 347 348 20 53 91 101 150 164 234 240 225 286 348 156 107 60 151 248 60 107 40 320 158 180 229 211 238 282 274 304 257 286 223 198 175 163 138
21 5 23 41 62 21 338 345 12 11 0 24 113 119 131 174 246 195 206 126 78 176 177 174 197 279 185 167 191 238 188 160 128 165 229 238 255 152 261 257 219 214 203 194 198
17 17 20 54 64 46 6 8 346 349 11 22 131 129 138 170 175 200 212 225 351 142 150 164 191 238 259 292 186 241 220 210 217 230 261 239 282 290 292 287 268 229 223 218 229
34 64 18 7 26 30 280 342 351 1 352 351 133 229 179 191 211 222 212 271 236 189 116 220 247 220 249 251 241 261 258 242 231 253 258 280 284 288 291 299 295 261 238 233 232
67 14 358 90 313 329 6 49 41 347 299 331 344 320 192 206 225 275 239 220 262 179 198 169 245 231 268 263 258 260 259 256 261 263 261 266 276 291 303 307 311 269 238 222 214
50 35 73 351 339 296 68 75 346 335 261 265 358 312 249 278 272 274 246 249 243 225 199 213 204 215 269 304 294 266 255 243 249 252 251 250 284 321 314 327 330 304 215 197 188